Regional Weather Roundup
Issued by NWS Austin/San Antonio, TX

Current Version | Previous Version | Text Only | Print | Product List | Glossary On
Versions: 1 2 3 4 5 6 7 8 9 10 11 12 13 14 15 16 17 18 19 20 21 22 23 24 25 26 27 28 29 30 31 32 33 34 35 36 37 38 39 40 41 42 43 44 45 46 47 48 49 50
000
ASUS44 KEWX 291213
RWREWX
SOUTH TEXAS REGIONAL WEATHER ROUNDUP
NATIONAL WEATHER SERVICE AUSTIN/SAN ANTONIO TX
700 AM CDT THU SEP 29 2022

NOTE: "FAIR" INDICATED FEW OR NO CLOUDS BELOW 12,000 FEET WITH NO
SIGNIFICANT WEATHER AND/OR OBSTRUCTIONS TO VISIBILITY.

* - THESE STATIONS ARE NOT NWS OR FAA STATIONS...AND ARE NOT SUBJECT
    TO NWS AND FAA QUALITY CONTROL.

TXZ171-172-183>190-291300-
TEXAS HILL COUNTRY AND EDWARDS PLATEAU

CITY           SKY/WX    TMP DP  RH WIND       PRES   REMARKS
JUNCTION       CLEAR     53  46  77 CALM      30.27R
6HR MIN TEMP:  53; 6HR MAX TEMP:  61;

*LLANO         MOCLDY    54  46  76 CALM      30.23R
BURNET         CLEAR     61  44  53 CALM      30.26R
6HR MIN TEMP:  60; 6HR MAX TEMP:  65;

*HORSESHOE BAY CLEAR     56  46  68 CALM      30.24R
6HR MIN TEMP:  56; 6HR MAX TEMP:  66;

*LAGO VISTA      N/A     66  43  43 W5        30.24R
6HR MIN TEMP:  66; 6HR MAX TEMP:  71;

*KERRVILLE     CLEAR     54  44  70 CALM      30.25R
6HR MIN TEMP:  53; 6HR MAX TEMP:  59;

*FREDERICKSBRG CLEAR     55  45  69 CALM      30.25R
6HR MIN TEMP:  54; 6HR MAX TEMP:  59;

*ROCKSPRINGS   PTCLDY    63  48  59 SW5       30.32R
*BOERNE        CLEAR     55  48  76 CALM      30.24R
HONDO          CLEAR     58  45  62 N3        30.22R
6HR MIN TEMP:  57; 6HR MAX TEMP:  62;

*UVALDE        CLEAR     58  51  75 NW3       30.25R
6HR MIN TEMP:  56; 6HR MAX TEMP:  64;

DEL RIO        CLEAR     64  51  62 NE7       30.22R
6HR MIN TEMP:  61; 6HR MAX TEMP:  69;

*LAUGHLIN AFB  CLEAR     58  53  83 NE8       30.21R
6HR MIN TEMP:  58; 6HR MAX TEMP:  66;

*SPOFFORD      CLEAR     56  47  73 W5        30.22R
6HR MIN TEMP:  55; 6HR MAX TEMP:  65;

CARRIZO SPRGS  CLEAR     63  54  72 W3        30.20R
*FAITH RANCH   CLEAR     61  52  72 W5        30.23R
$$

TXZ173-191>194-202-209-217>225-228-291300-
CENTRAL AND SOUTH CENTRAL TEXAS

CITY           SKY/WX    TMP DP  RH WIND       PRES   REMARKS
GEORGETOWN     CLEAR     59  48  67 NE3       30.25R
6HR MIN TEMP:  59; 6HR MAX TEMP:  66;

*TAYLOR        CLEAR     54  47  76 CALM      30.23R
6HR MIN TEMP:  54; 6HR MAX TEMP:  66;

AUSTIN/BERGSTM CLEAR     54  50  86 CALM      30.21R
6HR MIN TEMP:  53; 6HR MAX TEMP:  62;

AUSTIN/MABRY   CLEAR     64  49  57 CALM      30.22R
6HR MIN TEMP:  61; 6HR MAX TEMP:  68;

*PFLUGERVILLE  CLEAR     59  46  63 NE3       30.22R
SAN MARCOS     CLEAR    N/A N/A N/A NW5       30.23
NEW BRAUNFELS  CLEAR     75  49  39 NW6       30.20R
6HR MIN TEMP:  67; 6HR MAX TEMP:  84;

*RANDOLPH AFB  CLEAR     59  49  68 N6        30.19R
6HR MIN TEMP:  59; 6HR MAX TEMP:  73;

*SEGUIN        CLEAR     60  51  72 CALM      30.19R
6HR MIN TEMP:  57; 6HR MAX TEMP:  66;

SAN ANTONIO    CLEAR     60  49  66 NW3       30.22R
6HR MIN TEMP:  60; 6HR MAX TEMP:  69;

STINSON FIELD  CLEAR     60  52  74 CALM      30.20R
6HR MIN TEMP:  60; 6HR MAX TEMP:  68;

*KELLY FIELD   CLEAR     60  49  65 CALM      30.19R
6HR MIN TEMP:  59; 6HR MAX TEMP:  68;

*PLEASANTON    CLEAR     57  52  82 CALM      30.22R
6HR MIN TEMP:  57; 6HR MAX TEMP:  69;

*KENEDY        CLEAR     56  53  88 W3        30.22R
6HR MIN TEMP:  56; 6HR MAX TEMP:  63;

*LA GRANGE     NOT AVBL
*GIDDINGS      CLEAR     59  50  71 CALM      30.24R
6HR MIN TEMP:  57; 6HR MAX TEMP:  63;

*GONZALES      CLEAR     60  52  74 CALM      30.21R
6HR MIN TEMP:  59; 6HR MAX TEMP:  67;

$$

TXZ163>164-176>182-195>201-210>213-226-227-235-291300-
SOUTHEAST TEXAS

CITY           SKY/WX    TMP DP  RH WIND       PRES   REMARKS
COLLEGE STN    CLEAR     63  51  65 CALM      30.23R
6HR MIN TEMP:  61; 6HR MAX TEMP:  71;

*BRYAN         CLEAR     60  51  72 CALM      30.26R
6HR MIN TEMP:  57; 6HR MAX TEMP:  67;

*CALDWELL      CLEAR     64  50  59 SE3       30.24R
6HR MIN TEMP:  58; 6HR MAX TEMP:  65;

*CROCKETT      CLEAR     61  45  55 CALM      30.24S
*BRENHAM       CLEAR     65  50  60 CALM      30.23
6HR MIN TEMP:  60; 6HR MAX TEMP:  65;

HUNTSVILLE     CLEAR     58  52  80 CALM      30.23R
6HR MIN TEMP:  57; 6HR MAX TEMP:  67;

CONROE         CLEAR     58  49  72 CALM      30.23R
6HR MIN TEMP:  57; 6HR MAX TEMP:  64;

HOUSTON BUSH   CLEAR     63  47  55 NE9       30.22R
6HR MIN TEMP:  62; 6HR MAX TEMP:  68;

HOUSTON HOBBY  CLEAR     69  44  40 NE12      30.20R
6HR MIN TEMP:  68; 6HR MAX TEMP:  74;

*HOUSTON SW AP NOT AVBL
PEARLAND       CLEAR     69  51  52 E12       30.21R
6HR MIN TEMP:  62; 6HR MAX TEMP:  70;

HOUSTON HOOKS  CLEAR     63  50  62 NE5       30.22R
6HR MIN TEMP:  58; 6HR MAX TEMP:  64;

ELLINGTON FLD  CLEAR     64  48  55 NE12      30.20R
SUGAR LAND     CLEAR     60  52  74 N6        30.20R
6HR MIN TEMP:  58; 6HR MAX TEMP:  64;

*HOUSTON EXEC  CLEAR     61  52  72 N3        30.23R
*CLEVELAND MUN NOT AVBL
*WHARTON       CLEAR     61  55  81 CALM      30.21R
6HR MIN TEMP:  59; 6HR MAX TEMP:  62;

*COLUMBUS      FAIR      62  54  76 CALM      30.23R
6HR MIN TEMP:  58; 6HR MAX TEMP:  65;

*EAGLE LAKE    CLEAR     61  53  74 MISG      30.22R
6HR MIN TEMP:  60; 6HR MAX TEMP:  64;

$$

TXZ214>216-236>238-291300-
THE UPPER TEXAS COAST

CITY           SKY/WX    TMP DP  RH WIND       PRES   REMARKS
*ORANGE        CLEAR     61  48  61 CALM      30.23R
6HR MIN TEMP:  61; 6HR MAX TEMP:  71;

PORT ARTHUR    CLEAR     62  46  55 NE9       30.20R
6HR MIN TEMP:  62; 6HR MAX TEMP:  71;

GALVESTON      CLEAR     70  55  59 NE15      30.19R
6HR MIN TEMP:  70; 6HR MAX TEMP:  76;

ANGLETON       CLEAR     59  54  83 N6        30.19R
6HR MIN TEMP:  57; 6HR MAX TEMP:  62;

*BAY CITY      CLEAR     60  55  85 NE6       30.20R
PALACIOS       CLEAR     60  56  86 N6        30.19R
6HR MIN TEMP:  60; 6HR MAX TEMP:  65;

$$

TXZ229>234-239>247-291300-
TEXAS COASTAL BEND AND RIO GRANDE PLAINS

CITY           SKY/WX    TMP DP  RH WIND       PRES   REMARKS
VICTORIA       CLEAR     60  57  89 NE6       30.20R
6HR MIN TEMP:  59; 6HR MAX TEMP:  62;

*BEEVILLE      CLEAR     62  57  84 NW5       30.19R
6HR MIN TEMP:  62; 6HR MAX TEMP:  65;

ROCKPORT       CLEAR     68  64  87 N5        30.18R
6HR MIN TEMP:  68; 6HR MAX TEMP:  71;

*PORT ARANSAS  CLEAR    N/A N/A N/A N7        30.20R
*PORT LAVACA   CLEAR     63  56  79 N6        30.19R
*INGLESIDE     CLEAR     64  60  87 N3        30.18R
CORPUS CHRISTI PTCLDY    64  60  87 N5        30.18R
6HR MIN TEMP:  64; 6HR MAX TEMP:  69;

CORPUS NAS     CLEAR     73  66  78 N7        30.17R
6HR MIN TEMP:  71; 6HR MAX TEMP:  78;

*ROBSTOWN      CLEAR     61  58  87 MISG      30.19R
6HR MIN TEMP:  61; 6HR MAX TEMP:  67;

ALICE          CLEAR     62  59  90 W3        30.18R
6HR MIN TEMP:  61; 6HR MAX TEMP:  65;

KINGSVILLE NAS PTCLDY    61  60  97 NW5       30.18R
6HR MIN TEMP:  60; 6HR MAX TEMP:  66;

COTULLA        CLEAR     60  53  77 NW3       30.21R
6HR MIN TEMP:  60; 6HR MAX TEMP:  69;

LAREDO         CLEAR     65  58  78 CALM      30.21R
6HR MIN TEMP:  65; 6HR MAX TEMP:  72;

$$

TXZ248>255-291300-
DEEP SOUTH TEXAS

CITY           SKY/WX    TMP DP  RH WIND       PRES   REMARKS
BROWNSVIL


USA.gov is the U.S. government's official web portal to all federal, state and local government web resources and services.